Location: Banff
(51.1667°N, 115.5667°W)
Time: 15:26:33
(UTC+00:00)

deb Explorer IX - Visible Passes

Search period start: 26 November 2020 00:00
Search period end: 06 December 2020 00:00
Orbit: 538 x 1104 km, 38.8° (Epoch: 25 November)

Date Brightness Start Highest point End Pass type
(mag) Time Alt. Az. Time Alt. Az. Time Alt. Az.
26 Nov ? 02:31:53 10° SSW 02:34:33 16° S 02:34:33 16° S visible
27 Nov ? 02:08:23 10° SSW 02:11:48 17° S 02:12:33 17° SSE visible
28 Nov ? 01:44:52 10° SW 01:48:32 18° S 01:50:33 15° SE visible
28 Nov ? 03:31:05 10° SW 03:31:51 12° SW 03:31:51 12° SW visible
29 Nov ? 01:21:19 10° SW 01:25:14 19° S 01:28:33 11° SE visible
29 Nov ? 03:07:36 10° SW 03:09:50 17° SSW 03:09:50 17° SSW visible
30 Nov ? 00:57:46 10° SW 01:01:56 20° S 01:05:41 10° SE visible
30 Nov ? 02:44:05 10° SW 02:47:50 19° S 02:47:51 19° S visible
01 Dec ? 00:34:11 10° SW 00:38:36 21° S 00:42:34 10° SE visible
01 Dec ? 02:20:34 10° SW 02:24:33 20° S 02:25:53 18° S visible
02 Dec ? 00:10:37 10° SW 00:15:15 22° S 00:19:26 10° ESE visible
02 Dec ? 01:57:01 10° WSW 02:01:15 21° S 02:03:57 14° SSE visible
03 Dec ? 01:33:28 10° WSW 01:37:54 22° S 01:41:53 10° SE visible
03 Dec ? 03:22:00 10° SW 03:23:22 11° SSW 03:23:22 11° SSW visible
04 Dec ? 01:09:54 10° WSW 01:14:33 23° S 01:18:44 10° SE visible
04 Dec ? 02:58:16 10° SW 03:00:12 12° SSW 03:01:35 11° SSW visible
05 Dec ? 00:46:19 10° WSW 00:51:11 23° S 00:55:33 10° SE visible
05 Dec ? 02:34:34 10° SW 02:36:52 12° SSW 02:39:03 10° S visible
